Weather History for Rochester, MN

Change the Weather History Date:

Friday, May 24, 2013

  Actual Average Record
Temperature  
Mean Temperature 53 °F 60 °F  
Max Temperature 66 °F 71 °F 94 °F (2010)
Min Temperature 40 °F 50 °F 31 °F (1930)
Degree Days  
Heating Degree Days 12 6  
Month to date heating degree days 267 211  
Since 1 July heating degree days 7720 7636  
Cooling Degree Days 0 1  
Month to date cooling degree days 20 17  
Year to date cooling degree days 20 21  
Growing Degree Days 2 (Base 50)    
Moisture  
Dew Point 39 °F    
Average Humidity 61    
Maximum Humidity 77    
Minimum Humidity 44    
Precipitation  
Precipitation 0.03 in 0.12 in 2.33 in (1945)
Month to date precipitation 8.66 2.76  
Year to date precipitation 20.30 9.57  
Snow  
Snow 0.00 in 0.00 in 0.00 in (2012)
Month to date snowfall 14.5 0.2  
Since 1 July snowfall 74.0 52.1  
Snow Depth 0.00 in    
Sea Level Pressure  
Sea Level Pressure 30.35 in    
Wind  
Wind Speed 9 mph (SE)    
Max Wind Speed 18 mph    
Max Gust Speed 23 mph    
Visibility 10 miles    
Events Rain    
T = Trace of Precipitation, MM = Missing Value Source: NWS Daily Summary

Daily Weather History Graph

Daily Weather History Graph

Search for Another Location

Airport:

Trip Planner

Search our weather history database for the weather conditions in past years. The results will help you decide how hot, cold, wet, or windy it might be!

Date:

Astronomy

May. 24, 2013 Rise Set
Actual Time 5:35 AM CDT 8:38 PM CDT
Civil Twilight 5:01 AM CDT 9:13 PM CDT
Nautical Twilight 4:17 AM CDT 9:57 PM CDT
Astronomical Twilight 3:24 AM CDT 10:50 PM CDT
Moon 8:20 PM CDT (5/24) 5:09 AM CDT (5/24)
Length of Visible Light 16h 12m
Length of Day
15h 03m
Full, 100% of the Moon is Illuminated
May 24
Full
May 24
Full
May 31
Last Quarter
Jun 8
New
Jun 16
First Quarter

Hourly Weather History & Observations

Time (CDT) Temp. Windchill Dew Point Humidity Pressure Visibility Wind Dir Wind Speed Gust Speed Precip Events Conditions
12:54 AM 44.1 °F 40.1 °F 32.0 °F 63% 30.36 in 10.0 mi NE 6.9 mph - N/A   Clear
1:54 AM 43.0 °F 39.5 °F 30.9 °F 62% 30.36 in 10.0 mi NE 5.8 mph - N/A   Clear
2:54 AM 42.1 °F 37.7 °F 30.9 °F 65% 30.36 in 10.0 mi ENE 6.9 mph - N/A   Clear
3:54 AM 42.1 °F 39.2 °F 30.9 °F 65% 30.36 in 10.0 mi East 4.6 mph - N/A   Clear
4:54 AM 42.1 °F 38.4 °F 30.9 °F 65% 30.38 in 10.0 mi East 5.8 mph - N/A   Clear
5:54 AM 39.9 °F 35.1 °F 32.0 °F 73% 30.39 in 10.0 mi SE 6.9 mph - N/A   Clear
6:54 AM 43.0 °F 39.5 °F 35.1 °F 74% 30.40 in 10.0 mi SE 5.8 mph - N/A   Clear
7:54 AM 48.0 °F - 37.0 °F 66% 30.42 in 10.0 mi SSE 12.7 mph - N/A   Clear
8:54 AM 52.0 °F - 39.9 °F 63% 30.42 in 10.0 mi SSE 11.5 mph - N/A   Clear
9:54 AM 55.0 °F - 42.1 °F 62% 30.41 in 10.0 mi SE 11.5 mph - N/A   Clear
10:54 AM 59.0 °F - 41.0 °F 51% 30.40 in 10.0 mi SSE 10.4 mph - N/A   Clear
11:54 AM 60.1 °F - 41.0 °F 49% 30.40 in 10.0 mi South 12.7 mph 17.3 mph N/A   Clear
12:54 PM 62.1 °F - 41.0 °F 46% 30.38 in 10.0 mi South 11.5 mph 19.6 mph N/A   Clear
1:54 PM 64.0 °F - 44.1 °F 48% 30.35 in 10.0 mi South 10.4 mph 19.6 mph N/A   Clear
2:54 PM 64.0 °F - 43.0 °F 46% 30.31 in 10.0 mi SE 10.4 mph 23.0 mph N/A   Clear
3:54 PM 64.9 °F - 43.0 °F 45% 30.29 in 10.0 mi South 17.3 mph 20.7 mph N/A   Clear
4:54 PM 64.0 °F - 42.1 °F 45% 30.28 in 10.0 mi South 12.7 mph - N/A   Clear
5:54 PM 64.0 °F - 42.1 °F 45% 30.29 in 10.0 mi SSE 12.7 mph - N/A   Mostly Cloudy
6:54 PM 63.0 °F - 43.0 °F 48% 30.33 in 10.0 mi SSW 4.6 mph - N/A   Partly Cloudy
7:54 PM 61.0 °F - 43.0 °F 52% 30.30 in 10.0 mi SSE 5.8 mph - N/A   Partly Cloudy
8:54 PM 60.1 °F - 44.1 °F 55% 30.25 in 10.0 mi SSE 11.5 mph - 0.00 in Rain Light Rain
9:54 PM 55.0 °F - 48.0 °F 77% 30.28 in 10.0 mi East 5.8 mph - 0.02 in Rain Light Rain
10:54 PM 54.0 °F - 48.9 °F 83% 30.27 in 10.0 mi ESE 9.2 mph - 0.00 in   Overcast
11:54 PM 54.0 °F - 48.0 °F 80% 30.28 in 10.0 mi SE 8.1 mph - 0.01 in Rain Light Rain